This is the latest recevied weather packets stored in our database for station/object CA3NEB-13. If no packets are shown the sender has not sent any weather packets the latest 10 day(s).
| Time | Temp. | Humidity | Pressure | Rain* | Wind** | Luminosity | Snow |
|---|---|---|---|---|---|---|---|
| 1787874209 | 0° C | 79% | 1012.3 hPa | - | - | - | - |
| 1787873610 | 0.56° C | 78% | 1012.1 hPa | - | - | - | - |
| 1787873009 | 0.56° C | 77% | 1011.7 hPa | - | - | - | - |
| 1787872409 | 0.56° C | 78% | 1011.7 hPa | - | - | - | - |
| 1787871809 | 0.56° C | 79% | 1011.8 hPa | - | - | - | - |
| 1787871209 | 0.56° C | 78% | 1011.4 hPa | - | - | - | - |
| 1787870610 | 0.56° C | 79% | 1011.4 hPa | - | - | - | - |
| 1787870010 | 0.56° C | 78% | 1011.4 hPa | - | - | - | - |
| 1787869410 | 0.56° C | 78% | 1011 hPa | - | - | - | - |
| 1787868810 | 0.56° C | 79% | 1010.7 hPa | - | - | - | - |
| 1787868209 | 1.11° C | 79% | 1010.8 hPa | - | - | - | - |
| 1787867609 | 1.11° C | 78% | 1010.5 hPa | - | - | - | - |
| 1787867009 | 1.11° C | 77% | 1010.4 hPa | - | - | - | - |
| 1787866409 | 1.11° C | 78% | 1010.2 hPa | - | - | - | - |
| 1787865808 | 1.67° C | 77% | 1009.9 hPa | - | - | - | - |
| 1787865209 | 1.67° C | 76% | 1009.5 hPa | - | - | - | - |
| 1787864609 | 1.67° C | 74% | 1009.6 hPa | - | - | - | - |
| 1787864009 | 1.67° C | 75% | 1009.2 hPa | - | - | - | - |
| 1787863409 | 1.67° C | 75% | 1009.3 hPa | - | - | - | - |
| 1787862809 | 2.22° C | 75% | 1008.7 hPa | - | - | - | - |
| 1787862209 | 2.22° C | 74% | 1008.4 hPa | - | - | - | - |
| 1787861608 | 2.22° C | 73% | 1008.5 hPa | - | - | - | - |
| 1787861009 | 2.78° C | 73% | 1008.1 hPa | - | - | - | - |
| 1787860408 | 2.22° C | 73% | 1008.2 hPa | - | - | - | - |
| 1787859809 | 2.78° C | 73% | 1007.7 hPa | - | - | - | - |
* Rain since midnight (hover to see other rain measurements)
** Current wind speed in m/s (hover to see current wind gust speed)